This is the latest recevied weather packets stored in our database for station/object OH2HCY-3. If no packets are shown the sender has not sent any weather packets the latest 10 day(s).
| Time | Temp. | Humidity | Pressure | Rain* | Wind** | Luminosity | Snow |
|---|---|---|---|---|---|---|---|
| 1787489464 | 16.67° C | 71% | 1001.8 hPa | - | - | - | - |
| 1787488489 | 16.67° C | 69% | 1001.4 hPa | - | - | - | - |
| 1787487318 | 15.56° C | 81% | 1001.2 hPa | - | - | - | - |
| 1787486302 | 15° C | 79% | 1001 hPa | - | - | - | - |
| 1787485252 | 16.11° C | 71% | 1000.6 hPa | - | - | - | - |
| 1787484117 | 16.11° C | 74% | 1000.4 hPa | - | - | - | - |
| 1787483071 | 15.56° C | 10% | - | - | - | - | - |
| 1787483067 | 15.56° C | 75% | 1000 hPa | - | - | - | - |
| 1787482107 | 15.56° C | 75% | 999.8 hPa | - | - | - | - |
| 1787481032 | 15° C | 80% | 999.5 hPa | - | - | - | - |
| 1787479866 | 15° C | 82% | 999.3 hPa | - | - | - | - |
| 1787479864 | 15° C | 82% | 999.3 hPa | - | - | - | - |
| 1787478832 | 15° C | 81% | 999 hPa | - | - | - | - |
| 1787478827 | 15° C | 81% | 999 hPa | - | - | - | - |
| 1787477687 | 15° C | 81% | 998.6 hPa | - | - | - | - |
| 1787476697 | 15° C | 82% | 998.4 hPa | - | - | - | - |
| 1787475591 | 15° C | 85% | 998 hPa | - | - | - | - |
| 1787474447 | 14.44° C | 87% | 997.6 hPa | - | - | - | - |
| 1787473277 | 14.44° C | 87% | 997.2 hPa | - | - | - | - |
| 1787472109 | 14.44° C | 88% | 996.8 hPa | - | - | - | - |
| 1787471041 | 13.89° C | 88% | 996.5 hPa | - | - | - | - |
| 1787471037 | 13.89° C | 88% | 996.5 hPa | - | - | - | - |
| 1787469957 | 13.89° C | 88% | 996.2 hPa | - | - | - | - |
| 1787468842 | 13.89° C | 89% | 995.9 hPa | - | - | - | - |
| 1787467720 | 13.89° C | 89% | 995.6 hPa | - | - | - | - |
* Rain since midnight (hover to see other rain measurements)
** Current wind speed in m/s (hover to see current wind gust speed)